Location: Aulus
(42.7909°N, 1.3399°E)
Time: 20:18:25
(UTC+00:00)

CRYOSAT 2 - Pass Details

Date: 19 May 2025
Orbit: 717 x 722 km, 92.0° (Epoch: 21 June)

Event Time Altitude Azimuth Distance (km) Brightness Sun altitude
Rises 19:47:37 0° 167° (SSE) 3,120 7.2 -6.0°
Reaches altitude 10° 19:49:54 10° 166° (SSE) 2,204 6.4 -6.3°
Maximum altitude 19:54:45 71° 82° (E) 765 4.4 -7.0°
Drops below altitude 10° 19:59:38 10° 360° (N) 2,220 7.5 -7.7°
Sets 20:01:56 0° 358° (N) 3,144 8.3 -8.1°
